When you browse on this site, cookies collect data to enhance your experience and personalize the content and advertising you see.
Visit our Privacy Policy to learn more. By continuing to use the site, you agree to this use of cookies and data.
  • In United Kingdom
  • List of Countries
  • For 7 days
  • Water Temperature
  • Weather Map
  • Weather Widgets
  • user-avatar
    Login

    Hourly Weather Cobija

    Today, 22 October, Tuesday

    Time Temperature Precipitation Wind Pressure Humidity
    00:00 +24°C° 0.4 mm 1 mps 736 mmHg 98%
    01:00 +22°C° 0.4 mm 0 mps 736 mmHg 99%
    02:00 +22°C° 0.6 mm 0 mps 736 mmHg 98%
    03:00 +22°C° 0.6 mm 0 mps 736 mmHg 98%
    04:00 +22°C° 0.6 mm 0 mps 736 mmHg 98%
    05:00 +22°C° 0.4 mm 0 mps 737 mmHg 98%
    06:00 +22°C° 0.4 mm 0 mps 738 mmHg 98%
    07:00 +25°C° 0.4 mm 1 mps 739 mmHg 98%
    08:00 +25°C° 1.5 mm 1 mps 739 mmHg 98%
    09:00 +25°C° 1.5 mm 1 mps 739 mmHg 98%
    10:00 +25°C° 1.5 mm 1 mps 739 mmHg 98%
    11:00 +24°C° 3.1 mm 1 mps 739 mmHg 98%
    12:00 +24°C° 3.1 mm 1 mps 738 mmHg 99%
    13:00 +24°C° 3.1 mm 1 mps 738 mmHg 99%
    14:00 +24°C° 2.6 mm 1 mps 737 mmHg 99%
    15:00 +24°C° 2.6 mm 1 mps 736 mmHg 99%
    16:00 +24°C° 2.6 mm 1 mps 736 mmHg 99%
    17:00 +22°C° 0.1 mm 0 mps 736 mmHg 99%
    18:00 +22°C° 0.1 mm 0 mps 736 mmHg 99%
    19:00 +21°C° 0.1 mm 0 mps 736 mmHg 99%
    20:00 +21°C° 0 mm 0 mps 736 mmHg 99%
    21:00 +21°C° 0 mm 0 mps 736 mmHg 99%
    22:00 +21°C° 0 mm 0 mps 736 mmHg 99%
    23:00 +21°C° 0 mm 0 mps 736 mmHg 99%

    Tomorrow, 23 October, Wednesday

    Time Temperature Precipitation Wind Pressure Humidity
    00:00 +20°C° 0 mm 0 mps 736 mmHg 99%
    01:00 +20°C° 0 mm 0 mps 735 mmHg 99%
    02:00 +20°C° 0 mm 0 mps 735 mmHg 99%
    03:00 +20°C° 0 mm 0 mps 735 mmHg 99%
    04:00 +20°C° 0 mm 0 mps 735 mmHg 99%
    05:00 +21°C° 0 mm 0 mps 736 mmHg 97%
    06:00 +22°C° 0 mm 0 mps 737 mmHg 95%
    07:00 +23°C° 0 mm 0 mps 737 mmHg 93%
    08:00 +27°C° 0 mm 0 mps 738 mmHg 77%
    09:00 +30°C° 0 mm 0 mps 738 mmHg 62%
    10:00 +34°C° 0 mm 0 mps 738 mmHg 46%
    11:00 +34°C° 0 mm 0 mps 737 mmHg 45%
    12:00 +34°C° 0 mm 0 mps 736 mmHg 45%
    13:00 +34°C° 0 mm 0 mps 735 mmHg 44%
    14:00 +33°C° 0 mm 0 mps 735 mmHg 47%
    15:00 +32°C° 0 mm 0 mps 734 mmHg 50%
    16:00 +31°C° 0 mm 0 mps 733 mmHg 53%
    17:00 +30°C° 0.1 mm 0 mps 734 mmHg 59%
    18:00 +28°C° 0.1 mm 0 mps 734 mmHg 66%
    19:00 +26°C° 0.1 mm 0 mps 735 mmHg 73%
    20:00 +25°C° 0.1 mm 0 mps 735 mmHg 78%
    21:00 +24°C° 0.1 mm 0 mps 735 mmHg 82%
    22:00 +23°C° 0.1 mm 0 mps 736 mmHg 87%
    23:00 +23°C° 0 mm 0 mps 735 mmHg 88%

    Day after tomorrow, 24 October, Thursday

    Time Temperature Precipitation Wind Pressure Humidity
    00:00 +23°C° 0 mm 0 mps 735 mmHg 90%
    01:00 +22°C° 0 mm 0 mps 735 mmHg 91%
    02:00 +22°C° 0 mm 0 mps 735 mmHg 92%
    03:00 +22°C° 0 mm 0 mps 735 mmHg 93%
    04:00 +21°C° 0 mm 0 mps 735 mmHg 94%
    05:00 +23°C° 0 mm 0 mps 736 mmHg 89%
    06:00 +24°C° 0 mm 0 mps 737 mmHg 84%
    07:00 +25°C° 0 mm 0 mps 737 mmHg 79%
    08:00 +29°C° 0 mm 0 mps 737 mmHg 66%
    09:00 +33°C° 0 mm 0 mps 738 mmHg 53%
    10:00 +36°C° 0 mm 0 mps 738 mmHg 40%
    11:00 +36°C° 0 mm 0 mps 737 mmHg 40%
    12:00 +35°C° 0 mm 0 mps 736 mmHg 39%
    13:00 +37°C° 0 mm 1 mps 735 mmHg 39%
    14:00 +35°C° 0 mm 0 mps 734 mmHg 40%
    15:00 +34°C° 0 mm 0 mps 733 mmHg 41%
    16:00 +34°C° 0 mm 0 mps 733 mmHg 42%
    17:00 +32°C° 0 mm 0 mps 733 mmHg 50%
    18:00 +29°C° 0 mm 0 mps 733 mmHg 57%
    19:00 +27°C° 0 mm 0 mps 734 mmHg 64%
    20:00 +26°C° 0 mm 0 mps 734 mmHg 67%
    21:00 +26°C° 0 mm 0 mps 735 mmHg 70%
    22:00 +25°C° 0 mm 0 mps 735 mmHg 73%
    23:00 +24°C° 0.2 mm 0 mps 735 mmHg 79%

    25 October, Friday

    Time Temperature Precipitation Wind Pressure Humidity
    00:00 +25°C° 0.2 mm 1 mps 735 mmHg 85%
    01:00 +24°C° 0.2 mm 1 mps 735 mmHg 92%
    02:00 +24°C° 0.2 mm 1 mps 735 mmHg 93%
    03:00 +24°C° 0.2 mm 1 mps 736 mmHg 95%
    04:00 +24°C° 0.2 mm 1 mps 736 mmHg 96%
    05:00 +25°C° 0 mm 1 mps 737 mmHg 93%
    06:00 +26°C° 0 mm 1 mps 737 mmHg 90%
    07:00 +27°C° 0 mm 1 mps 738 mmHg 87%
    08:00 +30°C° 0 mm 1 mps 738 mmHg 73%
    09:00 +33°C° 0 mm 1 mps 738 mmHg 60%
    10:00 +36°C° 0 mm 1 mps 738 mmHg 46%
    11:00 +36°C° 0 mm 1 mps 737 mmHg 44%
    12:00 +36°C° 0 mm 1 mps 736 mmHg 42%
    13:00 +37°C° 0 mm 1 mps 735 mmHg 40%
    14:00 +36°C° 0 mm 1 mps 735 mmHg 44%
    15:00 +35°C° 0 mm 1 mps 734 mmHg 47%
    16:00 +32°C° 0 mm 0 mps 733 mmHg 50%
    17:00 +32°C° 0.2 mm 1 mps 734 mmHg 62%
    18:00 +29°C° 0.2 mm 1 mps 734 mmHg 74%
    19:00 +27°C° 0.2 mm 1 mps 735 mmHg 86%
    20:00 +26°C° 0.8 mm 1 mps 735 mmHg 90%
    21:00 +25°C° 0.8 mm 1 mps 736 mmHg 94%
    22:00 +25°C° 0.8 mm 1 mps 737 mmHg 97%
    23:00 +25°C° 0.1 mm 1 mps 736 mmHg 98%

    26 October, Saturday

    Time Temperature Precipitation Wind Pressure Humidity
    00:00 +24°C° 0.1 mm 1 mps 736 mmHg 98%
    01:00 +24°C° 0.1 mm 1 mps 736 mmHg 99%
    02:00 +24°C° 0 mm 1 mps 736 mmHg 99%
    03:00 +24°C° 0 mm 1 mps 736 mmHg 99%
    04:00 +22°C° 0 mm 0 mps 736 mmHg 99%
    05:00 +23°C° 0 mm 0 mps 736 mmHg 97%
    06:00 +23°C° 0 mm 0 mps 737 mmHg 94%
    07:00 +24°C° 0 mm 0 mps 738 mmHg 92%
    08:00 +29°C° 0 mm 1 mps 738 mmHg 77%
    09:00 +32°C° 0 mm 1 mps 738 mmHg 62%
    10:00 +35°C° 0 mm 1 mps 738 mmHg 48%
    11:00 +35°C° 0 mm 1 mps 737 mmHg 45%
    12:00 +36°C° 0 mm 1 mps 736 mmHg 42%
    13:00 +37°C° 0 mm 1 mps 735 mmHg 39%
    14:00 +35°C° 0.1 mm 1 mps 734 mmHg 46%
    15:00 +33°C° 0.1 mm 1 mps 734 mmHg 53%
    16:00 +32°C° 0.1 mm 2 mps 733 mmHg 59%
    17:00 +30°C° 0.3 mm 1 mps 733 mmHg 66%
    18:00 +29°C° 0.3 mm 1 mps 734 mmHg 72%
    19:00 +25°C° 0.3 mm 0 mps 734 mmHg 79%
    20:00 +25°C° 0 mm 0 mps 734 mmHg 81%
    21:00 +26°C° 0 mm 1 mps 735 mmHg 83%
    22:00 +26°C° 0 mm 1 mps 735 mmHg 85%
    23:00 +26°C° 0 mm 1 mps 735 mmHg 85%

    27 October, Sunday

    Time Temperature Precipitation Wind Pressure Humidity
    00:00 +25°C° 0 mm 1 mps 735 mmHg 86%
    01:00 +25°C° 0 mm 1 mps 735 mmHg 86%
    02:00 +25°C° 0 mm 1 mps 735 mmHg 87%
    03:00 +25°C° 0 mm 1 mps 735 mmHg 87%
    04:00 +25°C° 0 mm 1 mps 735 mmHg 88%
    05:00 +26°C° 0 mm 1 mps 736 mmHg 82%
    06:00 +27°C° 0 mm 1 mps 736 mmHg 77%
    07:00 +29°C° 0 mm 2 mps 737 mmHg 72%
    08:00 +31°C° 0 mm 2 mps 737 mmHg 61%
    09:00 +35°C° 0 mm 2 mps 737 mmHg 50%
    10:00 +38°C° 0 mm 2 mps 737 mmHg 39%
    11:00 +38°C° 0 mm 2 mps 736 mmHg 38%
    12:00 +39°C° 0 mm 2 mps 735 mmHg 36%
    13:00 +39°C° 0 mm 1 mps 734 mmHg 35%
    14:00 +37°C° 0 mm 1 mps 734 mmHg 37%
    15:00 +37°C° 0 mm 1 mps 733 mmHg 39%
    16:00 +37°C° 0 mm 1 mps 733 mmHg 41%
    17:00 +34°C° 0 mm 1 mps 733 mmHg 46%
    18:00 +32°C° 0 mm 1 mps 734 mmHg 52%
    19:00 +28°C° 0 mm 0 mps 734 mmHg 57%
    20:00 +30°C° 0 mm 1 mps 734 mmHg 59%
    21:00 +29°C° 0 mm 1 mps 735 mmHg 60%
    22:00 +29°C° 0 mm 1 mps 735 mmHg 62%
    23:00 +28°C° 0 mm 1 mps 735 mmHg 64%
    Show more